GJS4174 KDCA-KEWR

Flight info

Callsign GJS4174
Flight time 0h 40m
Altitude 19000
Route SOOKI6 SWANN PHLBO4
Aircraft CRJ7/M-SDFGIRWY/S

Departure

Time 2026-04-21 00:03
Airport Ronald Reagan Washington National Airport (KDCA)

Arrival

Time 2026-04-21 00:43
Airport Newark Liberty International Airport (KEWR)
Time Latitude Longitude Altitude Speed Heading
2026-04-20 23:28 38.85741 -77.04286 22 ft 0 kts 339°
2026-04-20 23:51 38.85733 -77.04282 24 ft 4 kts 344°
2026-04-20 23:51 38.85710 -77.04284 22 ft 4 kts 36°
2026-04-20 23:52 38.85702 -77.04297 23 ft 4 kts 72°
2026-04-20 23:52 38.85711 -77.04263 25 ft 4 kts 72°
2026-04-20 23:52 38.85719 -77.04230 23 ft 4 kts 72°
2026-04-20 23:52 38.85727 -77.04199 22 ft 2 kts 72°
2026-04-20 23:53 38.85727 -77.04197 22 ft 0 kts 72°
2026-04-20 23:55 38.85728 -77.04196 22 ft 1 kts 72°
2026-04-20 23:55 38.85732 -77.04179 22 ft 4 kts 72°
2026-04-20 23:55 38.85734 -77.04125 22 ft 8 kts 109°
2026-04-20 23:56 38.85685 -77.04063 24 ft 12 kts 146°
2026-04-20 23:56 38.85606 -77.04038 22 ft 11 kts 175°
2026-04-20 23:56 38.85517 -77.04019 22 ft 14 kts 164°
2026-04-20 23:56 38.85424 -77.04004 22 ft 12 kts 175°
2026-04-20 23:57 38.85333 -77.03995 22 ft 14 kts 175°
2026-04-20 23:57 38.85250 -77.03987 22 ft 13 kts 175°
2026-04-20 23:57 38.85142 -77.03976 22 ft 18 kts 175°
2026-04-20 23:57 38.85019 -77.03964 25 ft 17 kts 175°
2026-04-20 23:58 38.84946 -77.03957 22 ft 8 kts 175°
2026-04-20 23:58 38.84893 -77.03948 24 ft 5 kts 159°
2026-04-20 23:58 38.84865 -77.03899 22 ft 9 kts 137°
2026-04-20 23:58 38.84794 -77.03880 22 ft 13 kts 175°
2026-04-20 23:59 38.84692 -77.03871 23 ft 16 kts 176°
2026-04-20 23:59 38.84571 -77.03859 22 ft 14 kts 175°
2026-04-20 23:59 38.84479 -77.03850 23 ft 14 kts 175°
2026-04-20 23:59 38.84387 -77.03840 23 ft 13 kts 175°
2026-04-21 00:00 38.84316 -77.03832 25 ft 5 kts 175°
2026-04-21 00:00 38.84282 -77.03828 23 ft 6 kts 175°
2026-04-21 00:00 38.84243 -77.03817 26 ft 5 kts 145°
2026-04-21 00:00 38.84224 -77.03788 22 ft 0 kts 123°
2026-04-21 00:01 38.84224 -77.03787 22 ft 0 kts 123°
2026-04-21 00:02 38.84222 -77.03783 22 ft 2 kts 123°
2026-04-21 00:02 38.84202 -77.03745 13 ft 8 kts 123°
2026-04-21 00:02 38.84203 -77.03686 24 ft 8 kts 24°
2026-04-21 00:03 38.84294 -77.03689 22 ft 33 kts 355°
2026-04-21 00:03 38.84803 -77.03741 22 ft 111 kts 355°
2026-04-21 00:03 38.85749 -77.03830 270 ft 151 kts 355°
2026-04-21 00:03 38.86854 -77.03977 987 ft 166 kts 343°
2026-04-21 00:04 38.87890 -77.04716 1735 ft 182 kts 328°
2026-04-21 00:04 38.88976 -77.05595 2511 ft 185 kts 329°
2026-04-21 00:04 38.89981 -77.06638 3237 ft 185 kts 309°
2026-04-21 00:04 38.90591 -77.08067 3925 ft 183 kts 302°
2026-04-21 00:05 38.91176 -77.09418 4899 ft 167 kts 300°
2026-04-21 00:05 38.91738 -77.10854 5308 ft 193 kts 301°
2026-04-21 00:05 38.92444 -77.12415 5773 ft 205 kts 306°
2026-04-21 00:05 38.93588 -77.13500 6378 ft 213 kts 340°
2026-04-21 00:06 38.95033 -77.14082 7022 ft 223 kts 347°
2026-04-21 00:06 38.96609 -77.13889 7684 ft 234 kts
2026-04-21 00:06 38.98233 -77.13620 8382 ft 238 kts
2026-04-21 00:06 38.99898 -77.13496 9112 ft 242 kts 358°
2026-04-21 00:07 39.01598 -77.13438 9825 ft 248 kts
2026-04-21 00:07 39.03184 -77.12484 10526 ft 266 kts 39°
2026-04-21 00:07 39.04264 -77.10502 11201 ft 280 kts 64°
2026-04-21 00:07 39.04725 -77.08032 11914 ft 288 kts 75°
2026-04-21 00:08 39.04957 -77.05454 12635 ft 292 kts 79°
2026-04-21 00:08 39.05143 -77.02841 13346 ft 294 kts 78°
2026-04-21 00:08 39.05388 -77.00229 14043 ft 295 kts 75°
2026-04-21 00:08 39.05736 -76.97581 14450 ft 305 kts 72°
2026-04-21 00:09 39.06124 -76.94871 14730 ft 320 kts 72°
2026-04-21 00:09 39.06529 -76.91938 15005 ft 336 kts 73°
2026-04-21 00:09 39.06926 -76.88904 15272 ft 351 kts 74°
2026-04-21 00:09 39.07321 -76.85743 15573 ft 365 kts 75°
2026-04-21 00:10 39.07719 -76.82502 15850 ft 378 kts 75°
2026-04-21 00:10 39.08137 -76.79109 16140 ft 389 kts 75°
2026-04-21 00:10 39.08550 -76.75652 16642 ft 394 kts 75°
2026-04-21 00:10 39.09004 -76.72164 17234 ft 395 kts 73°
2026-04-21 00:11 39.09501 -76.68688 17840 ft 395 kts 72°
2026-04-21 00:11 39.10000 -76.65198 18435 ft 396 kts 72°
2026-04-21 00:11 39.10496 -76.61702 18926 ft 399 kts 72°
2026-04-21 00:11 39.11000 -76.58150 19149 ft 409 kts 72°
2026-04-21 00:12 39.11512 -76.54491 19253 ft 420 kts 73°
2026-04-21 00:12 39.12019 -76.50788 19296 ft 419 kts 73°
2026-04-21 00:12 39.12488 -76.47089 19314 ft 418 kts 75°
2026-04-21 00:12 39.12911 -76.43389 19320 ft 417 kts 75°
2026-04-21 00:13 39.13327 -76.39688 19332 ft 416 kts 75°
2026-04-21 00:13 39.13740 -76.36003 19332 ft 415 kts 75°
2026-04-21 00:13 39.14139 -76.32319 19334 ft 415 kts 76°
2026-04-21 00:13 39.14530 -76.28637 19331 ft 414 kts 76°
2026-04-21 00:14 39.14968 -76.24979 19320 ft 409 kts 70°
2026-04-21 00:14 39.16132 -76.21758 19318 ft 389 kts 46°
2026-04-21 00:14 39.17944 -76.19255 19330 ft 379 kts 36°
2026-04-21 00:14 39.19926 -76.17035 19338 ft 377 kts 33°
2026-04-21 00:15 39.21932 -76.14860 19336 ft 377 kts 33°
2026-04-21 00:15 39.23931 -76.12658 19331 ft 378 kts 34°
2026-04-21 00:15 39.25894 -76.10392 19327 ft 379 kts 36°
2026-04-21 00:15 39.27844 -76.08100 19323 ft 379 kts 36°
2026-04-21 00:16 39.29797 -76.05808 19318 ft 379 kts 36°
2026-04-21 00:16 39.31747 -76.03517 19314 ft 379 kts 36°
2026-04-21 00:16 39.33702 -76.01217 19313 ft 380 kts 36°
2026-04-21 00:16 39.35635 -75.98943 19314 ft 380 kts 36°
2026-04-21 00:17 39.37587 -75.96643 19308 ft 380 kts 36°
2026-04-21 00:17 39.39541 -75.94336 19304 ft 380 kts 36°
2026-04-21 00:17 39.41498 -75.92031 19305 ft 381 kts 36°
2026-04-21 00:17 39.43454 -75.89723 19307 ft 381 kts 36°
2026-04-21 00:18 39.45410 -75.87407 19306 ft 381 kts 36°
2026-04-21 00:18 39.47367 -75.85092 19308 ft 381 kts 36°
2026-04-21 00:18 39.49310 -75.82796 19304 ft 381 kts 37°
2026-04-21 00:18 39.51289 -75.80450 19308 ft 382 kts 37°
2026-04-21 00:19 39.53248 -75.78129 19318 ft 382 kts 37°
2026-04-21 00:19 39.55207 -75.75805 19319 ft 382 kts 37°
2026-04-21 00:19 39.57165 -75.73481 19310 ft 382 kts 37°
2026-04-21 00:19 39.59100 -75.71180 19325 ft 382 kts 37°
2026-04-21 00:20 39.61070 -75.68848 19325 ft 382 kts 37°
2026-04-21 00:20 39.63031 -75.66514 19317 ft 382 kts 37°
2026-04-21 00:20 39.64992 -75.64181 19325 ft 383 kts 37°
2026-04-21 00:20 39.66957 -75.61845 19319 ft 383 kts 37°
2026-04-21 00:21 39.68924 -75.59495 19156 ft 388 kts 38°
2026-04-21 00:21 39.70878 -75.57115 18778 ft 380 kts 38°
2026-04-21 00:21 39.72792 -75.54801 18315 ft 372 kts 38°
2026-04-21 00:21 39.74669 -75.52543 17832 ft 364 kts 38°
2026-04-21 00:22 39.76514 -75.50328 17358 ft 359 kts 38°
2026-04-21 00:22 39.78338 -75.48130 16887 ft 357 kts 38°
2026-04-21 00:22 39.80157 -75.45934 16415 ft 355 kts 38°
2026-04-21 00:22 39.81965 -75.43752 15965 ft 354 kts 38°
2026-04-21 00:23 39.83771 -75.41569 15538 ft 354 kts 39°
2026-04-21 00:23 39.85580 -75.39380 15107 ft 355 kts 39°
2026-04-21 00:23 39.87389 -75.37197 14685 ft 355 kts 39°
2026-04-21 00:23 39.89195 -75.35011 14261 ft 354 kts 39°
2026-04-21 00:24 39.90997 -75.32827 13808 ft 353 kts 39°
2026-04-21 00:24 39.92794 -75.30648 13371 ft 353 kts 39°
2026-04-21 00:24 39.94575 -75.28488 13154 ft 346 kts 39°
2026-04-21 00:24 39.96306 -75.26378 13065 ft 336 kts 39°
2026-04-21 00:25 39.97954 -75.24334 12992 ft 328 kts 40°
2026-04-21 00:25 39.99594 -75.22296 12821 ft 324 kts 40°
2026-04-21 00:25 40.01254 -75.20259 12481 ft 334 kts 39°
2026-04-21 00:25 40.02996 -75.18143 12147 ft 341 kts 39°
2026-04-21 00:26 40.04751 -75.16014 11811 ft 347 kts 39°
2026-04-21 00:26 40.06522 -75.13857 11496 ft 350 kts 40°
2026-04-21 00:26 40.08285 -75.11702 11170 ft 353 kts 40°
2026-04-21 00:26 40.10057 -75.09529 10841 ft 343 kts 40°
2026-04-21 00:27 40.11757 -75.07437 10656 ft 327 kts 40°
2026-04-21 00:27 40.13370 -75.05452 10565 ft 311 kts 39°
2026-04-21 00:27 40.14915 -75.03558 10473 ft 297 kts 39°
2026-04-21 00:27 40.16398 -75.01744 10303 ft 289 kts 39°
2026-04-21 00:28 40.17853 -74.99965 10022 ft 284 kts 39°
2026-04-21 00:28 40.19293 -74.98206 9730 ft 280 kts 39°
2026-04-21 00:28 40.20708 -74.96475 9443 ft 277 kts 39°
2026-04-21 00:28 40.22101 -74.94763 9152 ft 273 kts 39°
2026-04-21 00:29 40.23015 -74.93638 8972 ft 271 kts 39°
2026-04-21 00:29 40.24381 -74.91956 8704 ft 268 kts 39°
2026-04-21 00:29 40.25710 -74.90266 8431 ft 265 kts 41°
2026-04-21 00:29 40.26987 -74.88542 8190 ft 262 kts 43°
2026-04-21 00:30 40.28211 -74.86808 8083 ft 262 kts 44°
2026-04-21 00:30 40.29455 -74.85039 8052 ft 264 kts 44°
2026-04-21 00:30 40.30698 -74.83273 7956 ft 266 kts 44°
2026-04-21 00:30 40.31970 -74.81477 7700 ft 271 kts 44°
2026-04-21 00:31 40.33246 -74.79680 7435 ft 266 kts 44°
2026-04-21 00:31 40.34499 -74.77919 7171 ft 261 kts 44°
2026-04-21 00:31 40.35729 -74.76189 6913 ft 257 kts 44°
2026-04-21 00:31 40.36940 -74.74487 6649 ft 254 kts 44°
2026-04-21 00:32 40.38154 -74.72777 6383 ft 257 kts 44°
2026-04-21 00:32 40.39130 -74.70793 6118 ft 263 kts 63°
2026-04-21 00:32 40.39841 -74.68598 5863 ft 259 kts 65°
2026-04-21 00:32 40.40492 -74.66417 5588 ft 254 kts 66°
2026-04-21 00:33 40.41110 -74.64262 5317 ft 250 kts 66°
2026-04-21 00:33 40.41704 -74.62141 5121 ft 243 kts 67°
2026-04-21 00:33 40.42259 -74.60096 5035 ft 232 kts 67°
2026-04-21 00:33 40.42776 -74.58128 5017 ft 227 kts 68°
2026-04-21 00:34 40.43292 -74.56165 5005 ft 226 kts 67°
2026-04-21 00:34 40.43820 -74.54261 4992 ft 217 kts 65°
2026-04-21 00:34 40.44350 -74.52445 4960 ft 210 kts 65°
2026-04-21 00:34 40.44879 -74.50639 4689 ft 215 kts 65°
2026-04-21 00:35 40.45426 -74.48769 4440 ft 227 kts 65°
2026-04-21 00:35 40.45993 -74.46817 4180 ft 229 kts 65°
2026-04-21 00:35 40.46565 -74.44853 3926 ft 231 kts 65°
2026-04-21 00:35 40.47136 -74.42889 3664 ft 230 kts 65°
2026-04-21 00:36 40.47699 -74.40948 3400 ft 223 kts 65°
2026-04-21 00:36 40.48244 -74.39066 3167 ft 217 kts 65°
2026-04-21 00:36 40.48755 -74.37302 3050 ft 196 kts 64°
2026-04-21 00:36 40.49213 -74.35712 2999 ft 184 kts 63°
2026-04-21 00:37 40.49706 -74.34076 3033 ft 197 kts 64°
2026-04-21 00:37 40.50219 -74.32387 3039 ft 199 kts 64°
2026-04-21 00:37 40.50711 -74.30724 3028 ft 187 kts 64°
2026-04-21 00:37 40.51177 -74.29143 3015 ft 183 kts 64°
2026-04-21 00:38 40.51726 -74.27691 2968 ft 171 kts 40°
2026-04-21 00:38 40.52680 -74.26969 2990 ft 152 kts 21°
2026-04-21 00:38 40.53603 -74.26371 3026 ft 146 kts 21°
2026-04-21 00:38 40.54503 -74.25788 3048 ft 139 kts 20°
2026-04-21 00:39 40.55341 -74.25256 3033 ft 129 kts 20°
2026-04-21 00:39 40.56133 -74.24762 3014 ft 130 kts 19°
2026-04-21 00:39 40.56983 -74.24241 2955 ft 133 kts 20°
2026-04-21 00:39 40.57795 -74.23748 2734 ft 130 kts 19°
2026-04-21 00:40 40.58600 -74.23222 2484 ft 128 kts 23°
2026-04-21 00:40 40.59366 -74.22668 2137 ft 125 kts 22°
2026-04-21 00:40 40.60124 -74.22178 1882 ft 119 kts 20°
2026-04-21 00:40 40.60892 -74.21701 1724 ft 122 kts 19°
2026-04-21 00:41 40.61639 -74.21229 1563 ft 116 kts 20°
2026-04-21 00:41 40.62359 -74.20801 1400 ft 110 kts 18°
2026-04-21 00:41 40.63089 -74.20361 1230 ft 123 kts 20°
2026-04-21 00:41 40.63820 -74.19886 1080 ft 113 kts 21°
2026-04-21 00:42 40.64606 -74.19394 886 ft 130 kts 21°
2026-04-21 00:42 40.65416 -74.18882 702 ft 128 kts 20°
2026-04-21 00:42 40.66208 -74.18402 530 ft 125 kts 19°
2026-04-21 00:42 40.66976 -74.17901 340 ft 126 kts 21°
2026-04-21 00:43 40.67767 -74.17402 140 ft 125 kts 17°
2026-04-21 00:43 40.68517 -74.16935 25 ft 106 kts 17°
2026-04-21 00:43 40.69010 -74.16647 20 ft 50 kts 27°
2026-04-21 00:43 40.69257 -74.16479 22 ft 33 kts 24°
2026-04-21 00:44 40.69362 -74.16448 23 ft 12 kts 354°
2026-04-21 00:44 40.69452 -74.16460 22 ft 12 kts 347°
2026-04-21 00:44 40.69486 -74.16487 21 ft 4 kts 303°
2026-04-21 00:45 40.69460 -74.16559 21 ft 7 kts 213°
2026-04-21 00:45 40.69423 -74.16587 21 ft 7 kts 207°
2026-04-21 00:45 40.69404 -74.16621 21 ft 3 kts 276°
2026-04-21 00:45 40.69405 -74.16626 21 ft 0 kts 285°
2026-04-21 00:46 40.69412 -74.16650 21 ft 5 kts 294°
2026-04-21 00:46 40.69432 -74.16706 21 ft 8 kts 296°
2026-04-21 00:46 40.69460 -74.16781 21 ft 10 kts 297°
2026-04-21 00:46 40.69493 -74.16872 20 ft 12 kts 293°
2026-04-21 00:47 40.69527 -74.16979 20 ft 13 kts 285°
2026-04-21 00:47 40.69525 -74.17067 21 ft 3 kts 258°
2026-04-21 00:47 40.69521 -74.17091 20 ft 3 kts 258°
2026-04-21 00:47 40.69517 -74.17116 20 ft 2 kts 261°
2026-04-21 00:48 40.69515 -74.17146 20 ft 5 kts 267°
2026-04-21 00:48 40.69527 -74.17194 20 ft 6 kts 315°
2026-04-21 00:48 40.69542 -74.17214 20 ft 3 kts 317°
2026-04-21 00:48 40.69557 -74.17233 20 ft 1 kts 317°
2026-04-21 00:49 40.69560 -74.17236 20 ft 1 kts 317°
2026-04-21 00:49 40.69563 -74.17239 20 ft 0 kts 317°
2026-04-21 00:52 40.69563 -74.17240 20 ft 0 kts 317°